CEB326 RPVK-RPLL

Flight info

Callsign CEB326
Flight time 0h 41m
Altitude 25000
Route MINOR2R MINOR B473 LAIYA LAIYA3R
Aircraft A320/M-SDE3FGHIRWY/LB1

Departure

Time 2026-04-25 14:11
Airport Kalibo International Airport (RPVK)

Arrival

Time 2026-04-25 14:52
Airport Ninoy Aquino International Airport (RPLL)
Time Latitude Longitude Altitude Speed Heading
2026-04-25 13:51 11.68545 122.38106 20 ft 0 kts 351°
2026-04-25 14:06 11.68546 122.38107 20 ft 0 kts 355°
2026-04-25 14:06 11.68547 122.38117 24 ft 0 kts 98°
2026-04-25 14:07 11.68547 122.38118 20 ft 0 kts 101°
2026-04-25 14:07 11.68546 122.38118 20 ft 1 kts 107°
2026-04-25 14:08 11.68528 122.38127 22 ft 3 kts 180°
2026-04-25 14:08 11.68504 122.38119 19 ft 4 kts 193°
2026-04-25 14:08 11.68486 122.38171 21 ft 18 kts 52°
2026-04-25 14:08 11.68588 122.38290 21 ft 25 kts 49°
2026-04-25 14:09 11.68676 122.38375 22 ft 9 kts 30°
2026-04-25 14:09 11.68671 122.38393 22 ft 1 kts 204°
2026-04-25 14:09 11.68666 122.38383 24 ft 0 kts 236°
2026-04-25 14:10 11.68662 122.38378 24 ft 0 kts 236°
2026-04-25 14:10 11.68623 122.38329 21 ft 45 kts 231°
2026-04-25 14:10 11.68195 122.37833 18 ft 135 kts 229°
2026-04-25 14:10 11.67447 122.36969 328 ft 178 kts 229°
2026-04-25 14:11 11.66621 122.36003 1256 ft 180 kts 229°
2026-04-25 14:11 11.66135 122.34840 2130 ft 187 kts 271°
2026-04-25 14:11 11.66621 122.33579 2644 ft 204 kts 319°
2026-04-25 14:11 11.67926 122.32943 3120 ft 221 kts 352°
2026-04-25 14:12 11.69525 122.32665 3788 ft 246 kts 355°
2026-04-25 14:12 11.71301 122.32409 4612 ft 267 kts 356°
2026-04-25 14:12 11.73171 122.32129 5700 ft 276 kts 354°
2026-04-25 14:12 11.75087 122.31817 6830 ft 281 kts 353°
2026-04-25 14:13 11.77034 122.31474 7945 ft 286 kts 352°
2026-04-25 14:13 11.79011 122.31108 9051 ft 290 kts 351°
2026-04-25 14:13 11.81009 122.30731 9696 ft 294 kts 351°
2026-04-25 14:13 11.83036 122.30344 10156 ft 300 kts 351°
2026-04-25 14:14 11.85151 122.29938 10283 ft 317 kts 351°
2026-04-25 14:14 11.87396 122.29507 10571 ft 339 kts 351°
2026-04-25 14:14 11.89736 122.29058 11452 ft 346 kts 350°
2026-04-25 14:14 11.92122 122.28597 12384 ft 352 kts 349°
2026-04-25 14:15 11.94549 122.28127 13297 ft 358 kts 349°
2026-04-25 14:15 11.95346 122.27974 13590 ft 360 kts 349°
2026-04-25 14:15 11.99521 122.27175 14676 ft 368 kts 349°
2026-04-25 14:15 12.02041 122.26693 14875 ft 369 kts 349°
2026-04-25 14:16 12.04565 122.26211 14947 ft 368 kts 349°
2026-04-25 14:16 12.07053 122.25734 14956 ft 368 kts 349°
2026-04-25 14:16 12.09591 122.25416 14955 ft 367 kts 356°
2026-04-25 14:16 12.12144 122.25241 14957 ft 367 kts 356°
2026-04-25 14:17 12.14693 122.25061 14958 ft 367 kts 356°
2026-04-25 14:17 12.17242 122.24879 14955 ft 367 kts 356°
2026-04-25 14:17 12.19787 122.24697 14953 ft 367 kts 356°
2026-04-25 14:17 12.22340 122.24511 15067 ft 372 kts 356°
2026-04-25 14:18 12.24935 122.24324 15917 ft 374 kts 356°
2026-04-25 14:18 12.27544 122.24135 16795 ft 377 kts 356°
2026-04-25 14:18 12.30178 122.23943 17606 ft 382 kts 356°
2026-04-25 14:18 12.32841 122.23748 18365 ft 386 kts 356°
2026-04-25 14:19 12.35510 122.23303 18998 ft 392 kts 346°
2026-04-25 14:19 12.38089 122.22354 19641 ft 397 kts 335°
2026-04-25 14:19 12.40497 122.20928 20286 ft 402 kts 326°
2026-04-25 14:19 12.42816 122.19312 20932 ft 406 kts 325°
2026-04-25 14:20 12.45161 122.17679 21574 ft 410 kts 325°
2026-04-25 14:20 12.45924 122.17149 21778 ft 411 kts 325°
2026-04-25 14:20 12.49920 122.14377 22860 ft 417 kts 325°
2026-04-25 14:20 12.52298 122.12728 23472 ft 421 kts 325°
2026-04-25 14:21 12.54733 122.11037 23819 ft 423 kts 324°
2026-04-25 14:21 12.57166 122.09344 23923 ft 423 kts 324°
2026-04-25 14:21 12.58808 122.08199 23957 ft 423 kts 324°
2026-04-25 14:21 12.62024 122.05954 23963 ft 422 kts 324°
2026-04-25 14:22 12.64451 122.04262 23962 ft 422 kts 324°
2026-04-25 14:22 12.66878 122.02573 23960 ft 422 kts 324°
2026-04-25 14:22 12.69307 122.00883 23961 ft 422 kts 325°
2026-04-25 14:22 12.71736 121.99194 23960 ft 422 kts 324°
2026-04-25 14:23 12.73344 121.98077 23966 ft 422 kts 324°
2026-04-25 14:23 12.76591 121.95818 23965 ft 421 kts 324°
2026-04-25 14:23 12.78194 121.94700 23964 ft 421 kts 324°
2026-04-25 14:23 12.81432 121.92443 23962 ft 421 kts 324°
2026-04-25 14:24 12.83034 121.91327 23969 ft 421 kts 324°
2026-04-25 14:24 12.85455 121.89643 23965 ft 421 kts 324°
2026-04-25 14:24 12.87876 121.87957 23964 ft 421 kts 324°
2026-04-25 14:24 12.90294 121.86272 23965 ft 421 kts 324°
2026-04-25 14:25 12.93469 121.84060 23966 ft 421 kts 324°
2026-04-25 14:25 12.95104 121.82920 23967 ft 421 kts 324°
2026-04-25 14:25 12.98306 121.80683 23967 ft 421 kts 324°
2026-04-25 14:25 12.99123 121.80112 23968 ft 421 kts 324°
2026-04-25 14:26 13.02358 121.77852 23969 ft 421 kts 324°
2026-04-25 14:26 13.03142 121.77303 23970 ft 421 kts 324°
2026-04-25 14:26 13.09495 121.72867 23973 ft 421 kts 324°
2026-04-25 14:27 13.11914 121.71174 23973 ft 421 kts 324°
2026-04-25 14:27 13.14336 121.69480 23968 ft 421 kts 324°
2026-04-25 14:27 13.16752 121.67790 23970 ft 421 kts 324°
2026-04-25 14:27 13.19172 121.66098 23969 ft 421 kts 324°
2026-04-25 14:28 13.21590 121.64404 23971 ft 421 kts 324°
2026-04-25 14:28 13.24006 121.62711 23973 ft 421 kts 324°
2026-04-25 14:28 13.26392 121.61041 23971 ft 420 kts 324°
2026-04-25 14:28 13.28814 121.59349 23972 ft 420 kts 324°
2026-04-25 14:29 13.31231 121.57660 23969 ft 420 kts 324°
2026-04-25 14:29 13.33648 121.55969 23971 ft 420 kts 324°
2026-04-25 14:29 13.36063 121.54278 23974 ft 420 kts 323°
2026-04-25 14:29 13.38479 121.52587 23972 ft 420 kts 324°
2026-04-25 14:30 13.40896 121.50895 23972 ft 420 kts 323°
2026-04-25 14:30 13.45725 121.47511 23976 ft 420 kts 323°
2026-04-25 14:30 13.48137 121.45816 23978 ft 420 kts 323°
2026-04-25 14:31 13.50544 121.44125 23972 ft 415 kts 323°
2026-04-25 14:31 13.52880 121.42488 23795 ft 400 kts 323°
2026-04-25 14:31 13.55157 121.40893 23423 ft 391 kts 323°
2026-04-25 14:31 13.57355 121.39352 23269 ft 375 kts 323°
2026-04-25 14:32 13.59467 121.37834 22918 ft 367 kts 322°
2026-04-25 14:32 13.61523 121.36307 22468 ft 362 kts 322°
2026-04-25 14:32 13.63545 121.34780 22000 ft 359 kts 322°
2026-04-25 14:32 13.65551 121.33262 21537 ft 356 kts 322°
2026-04-25 14:33 13.67546 121.31760 21090 ft 353 kts 322°
2026-04-25 14:33 13.69524 121.30276 20638 ft 351 kts 322°
2026-04-25 14:33 13.71493 121.28803 20199 ft 349 kts 322°
2026-04-25 14:33 13.73423 121.27361 19986 ft 348 kts 322°
2026-04-25 14:34 13.75379 121.25898 19970 ft 348 kts 322°
2026-04-25 14:34 13.77341 121.24433 19976 ft 348 kts 322°
2026-04-25 14:34 13.79303 121.22971 19978 ft 348 kts 322°
2026-04-25 14:34 13.81267 121.21509 19981 ft 348 kts 322°
2026-04-25 14:35 13.83227 121.20048 19979 ft 348 kts 322°
2026-04-25 14:35 13.85186 121.18585 19979 ft 348 kts 322°
2026-04-25 14:35 13.87156 121.17128 19981 ft 354 kts 325°
2026-04-25 14:35 13.89446 121.16060 19980 ft 370 kts 345°
2026-04-25 14:36 13.92022 121.15880 19983 ft 376 kts
2026-04-25 14:36 13.94563 121.16518 19882 ft 375 kts 16°
2026-04-25 14:36 13.97041 121.17330 19385 ft 373 kts 17°
2026-04-25 14:36 13.99485 121.18142 18755 ft 365 kts 17°
2026-04-25 14:37 14.01891 121.18938 17826 ft 361 kts 17°
2026-04-25 14:37 14.04268 121.19723 16893 ft 356 kts 17°
2026-04-25 14:37 14.06624 121.20460 16001 ft 351 kts 11°
2026-04-25 14:37 14.09022 121.20534 15190 ft 343 kts 349°
2026-04-25 14:38 14.11224 121.19689 14397 ft 336 kts 326°
2026-04-25 14:38 14.12907 121.18069 13590 ft 330 kts 304°
2026-04-25 14:38 14.13886 121.15956 12688 ft 326 kts 288°
2026-04-25 14:38 14.14594 121.13751 11793 ft 323 kts 287°
2026-04-25 14:39 14.15267 121.11558 10944 ft 319 kts 287°
2026-04-25 14:39 14.15918 121.09386 10308 ft 316 kts 287°
2026-04-25 14:39 14.16540 121.07274 10098 ft 306 kts 287°
2026-04-25 14:39 14.17143 121.05209 9995 ft 298 kts 287°
2026-04-25 14:40 14.17736 121.03171 10004 ft 296 kts 287°
2026-04-25 14:40 14.18327 121.01141 9921 ft 294 kts 287°
2026-04-25 14:40 14.18910 120.99129 9492 ft 292 kts 287°
2026-04-25 14:40 14.19486 120.97119 9051 ft 291 kts 287°
2026-04-25 14:41 14.20056 120.95117 8606 ft 289 kts 287°
2026-04-25 14:41 14.20616 120.93131 8157 ft 288 kts 287°
2026-04-25 14:41 14.21167 120.91174 7705 ft 287 kts 287°
2026-04-25 14:41 14.21718 120.89198 7260 ft 286 kts 287°
2026-04-25 14:42 14.22265 120.87223 6820 ft 285 kts 287°
2026-04-25 14:42 14.22625 120.85925 6524 ft 284 kts 287°
2026-04-25 14:42 14.23388 120.83322 5895 ft 282 kts 294°
2026-04-25 14:42 14.24532 120.81729 5436 ft 276 kts 321°
2026-04-25 14:43 14.26067 120.80542 4919 ft 276 kts 327°
2026-04-25 14:43 14.27642 120.79416 4411 ft 275 kts 327°
2026-04-25 14:43 14.29205 120.78312 3935 ft 276 kts 327°
2026-04-25 14:43 14.30791 120.77197 3450 ft 276 kts 327°
2026-04-25 14:44 14.32373 120.76083 3070 ft 273 kts 328°
2026-04-25 14:44 14.34087 120.75296 2990 ft 270 kts 353°
2026-04-25 14:44 14.35913 120.75388 3001 ft 254 kts 18°
2026-04-25 14:44 14.37400 120.76138 3003 ft 225 kts 40°
2026-04-25 14:45 14.38415 120.77258 3001 ft 205 kts 59°
2026-04-25 14:45 14.38858 120.78574 2997 ft 190 kts 91°
2026-04-25 14:45 14.38808 120.79901 3016 ft 178 kts 83°
2026-04-25 14:45 14.39294 120.80987 3006 ft 161 kts 63°
2026-04-25 14:46 14.39791 120.81960 3000 ft 147 kts 64°
2026-04-25 14:46 14.40270 120.82868 3011 ft 142 kts 64°
2026-04-25 14:46 14.40742 120.83737 3019 ft 137 kts 64°
2026-04-25 14:46 14.41208 120.84584 3012 ft 134 kts 63°
2026-04-25 14:47 14.41667 120.85414 2995 ft 133 kts 64°
2026-04-25 14:47 14.41971 120.85962 2932 ft 134 kts 63°
2026-04-25 14:47 14.42581 120.87060 2754 ft 132 kts 62°
2026-04-25 14:47 14.43042 120.87889 2598 ft 132 kts 63°
2026-04-25 14:48 14.43489 120.88691 2433 ft 130 kts 62°
2026-04-25 14:48 14.43940 120.89502 2272 ft 130 kts 62°
2026-04-25 14:48 14.44390 120.90312 2099 ft 130 kts 63°
2026-04-25 14:48 14.44842 120.91124 1938 ft 131 kts 63°
2026-04-25 14:49 14.45296 120.91939 1774 ft 129 kts 63°
2026-04-25 14:49 14.45742 120.92741 1604 ft 129 kts 62°
2026-04-25 14:49 14.46186 120.93539 1432 ft 128 kts 63°
2026-04-25 14:49 14.46625 120.94329 1272 ft 130 kts 62°
2026-04-25 14:50 14.47074 120.95136 1118 ft 128 kts 62°
2026-04-25 14:50 14.47522 120.95941 967 ft 130 kts 61°
2026-04-25 14:50 14.47974 120.96753 795 ft 130 kts 62°
2026-04-25 14:50 14.48428 120.97570 640 ft 132 kts 62°
2026-04-25 14:51 14.48870 120.98380 484 ft 131 kts 60°
2026-04-25 14:51 14.49331 120.99191 328 ft 132 kts 62°
2026-04-25 14:51 14.49790 121.00006 165 ft 132 kts 63°
2026-04-25 14:51 14.50213 121.00799 65 ft 113 kts 56°
2026-04-25 14:52 14.50471 121.01254 64 ft 41 kts 60°
2026-04-25 14:52 14.50610 121.01496 62 ft 39 kts 60°
2026-04-25 14:52 14.50743 121.01697 69 ft 32 kts 42°
2026-04-25 14:52 14.50836 121.01776 66 ft 11 kts 35°
2026-04-25 14:53 14.50934 121.01741 66 ft 15 kts 315°
2026-04-25 14:53 14.51006 121.01667 63 ft 15 kts 316°
2026-04-25 14:53 14.51080 121.01593 66 ft 15 kts 313°
2026-04-25 14:53 14.51152 121.01515 66 ft 15 kts 314°
2026-04-25 14:54 14.51188 121.01478 65 ft 0 kts 315°
2026-04-25 14:55 14.51208 121.01458 63 ft 10 kts 315°
2026-04-25 14:55 14.51266 121.01426 65 ft 9 kts
2026-04-25 14:55 14.51345 121.01506 65 ft 15 kts 48°
2026-04-25 14:56 14.51417 121.01530 63 ft 12 kts 314°
2026-04-25 14:56 14.51477 121.01464 64 ft 13 kts 314°
2026-04-25 14:56 14.51539 121.01399 66 ft 13 kts 315°
2026-04-25 14:56 14.51589 121.01348 64 ft 9 kts 315°
2026-04-25 14:57 14.51636 121.01310 67 ft 9 kts 341°
2026-04-25 14:57 14.51713 121.01319 67 ft 12 kts 344°
2026-04-25 14:57 14.51783 121.01264 66 ft 7 kts
2026-04-25 14:57 14.51823 121.01288 69 ft 7 kts 44°
2026-04-25 14:58 14.51854 121.01322 61 ft 0 kts 47°